User: anonymous   Login
Location: Unspecified
(0.0000°N, 0.0000°E)
Time: 19:21:58
(UTC+00:00)
Language:

SO-67 - Orbit

View from above orbital plane
View from above orbital plane
View from above satellite
View from above satellite

Ground track
Ground track

The orbit data is extracted from the following two-line orbital elements,

1 35870U 09049F   18171.55173900  .00005083  00000-0  69267-4 0  9993
2 35870  97.0814 190.6539 0003405 111.9980  39.9961 15.57976743490495
Epoch (UTC): 20 June 2018 13:14:30
Eccentricity: 0.0003405
inclination: 97.0814°
perigee height: 391 km
apogee height: 396 km
right ascension of ascending node: 190.6539°
argument of perigee: 111.9980°
revolutions per day: 15.57976743
mean anomaly at epoch: 39.9961°
orbit number at epoch: 49049

The dashed part of the orbit path shows where the satellite is in the earth's shadow,  

DLR